Theta_e
324 317 319 321 309 310 308 311 317 317 320 326 325 323 321 329 331 329 351 350 356 357 361 363 367 367 367 364 365 363 361 361 362 361 361 362 363 364 364 363 361 361 359 359 357 355 355 354 353
319 321 320 315 307 304 308 315 315 320 324 325 324 324 323 330 343 345 348 351 358 359 361 361 366 367 367 365 364 362 361 362 362 361 361 362 363 363 363 363 361 359 356 357 356 355 355 354 354
319 319 312 307 306 304 308 316 319 322 325 323 322 326 324 334 343 350 352 352 359 358 360 365 366 367 367 366 364 362 361 362 362 362 362 362 363 363 363 362 361 358 354 355 355 356 355 355 355
315 314 312 302 303 311 313 317 321 322 324 325 323 319 327 339 340 353 352 352 356 356 358 363 365 366 366 365 365 362 362 362 362 362 362 362 363 363 362 362 360 358 355 354 356 356 355 354 353
316 311 302 300 303 309 315 320 321 319 321 322 323 319 322 341 346 352 351 351 354 352 361 362 364 365 365 364 364 363 362 362 361 362 362 362 362 362 361 361 360 358 356 356 355 356 355 354 352
306 308 300 298 301 307 312 316 318 319 321 320 319 319 322 345 345 350 351 352 353 354 362 360 363 364 363 362 362 363 362 361 361 361 361 361 361 361 360 360 359 358 356 356 355 355 355 355 354
304 303 299 301 302 305 309 314 312 314 318 318 322 317 323 338 346 351 351 352 352 360 360 358 358 363 363 362 361 362 361 361 361 360 360 360 360 360 359 359 358 357 356 355 355 355 355 354 353
305 304 300 302 301 303 310 312 314 313 313 321 320 316 317 343 352 351 350 351 350 354 357 355 357 358 360 361 362 362 361 361 360 360 360 360 360 359 359 357 356 356 355 355 355 354 353 351 350
310 299 296 300 302 305 310 309 313 314 312 314 316 316 322 344 352 348 347 348 348 349 356 353 352 354 356 358 361 361 361 361 360 360 360 357 353 354 354 353 355 355 355 354 353 352 350 348 347
304 300 299 304 306 306 309 309 310 309 310 311 313 318 325 336 342 345 345 344 345 347 350 350 350 350 350 350 359 360 359 359 358 358 357 352 349 350 348 350 356 355 354 353 352 351 350 349 336
305 301 305 306 307 308 307 307 310 307 306 310 310 314 317 322 331 339 344 344 346 349 349 350 351 351 347 346 356 355 357 357 357 356 355 351 345 348 344 349 347 348 352 345 348 346 343 337 334
300 305 306 306 308 307 305 307 306 307 307 312 312 314 315 317 329 335 341 345 346 348 348 350 350 350 349 347 351 349 348 349 349 349 353 348 347 349 344 348 346 346 343 341 340 338 338 337 337
301 303 306 308 307 307 307 305 304 305 309 311 312 312 313 315 325 333 335 344 348 347 349 349 349 351 350 359 350 347 346 346 348 348 351 348 347 353 352 349 348 345 342 340 341 341 341 344 343
305 305 305 306 306 307 304 304 305 306 310 309 310 310 311 313 316 324 326 329 340 346 356 353 350 355 352 357 356 347 346 348 349 347 349 353 351 354 352 352 349 348 344 344 343 345 344 343 342
306 302 304 305 305 304 306 301 302 308 310 308 309 311 311 312 314 317 323 328 331 335 354 355 350 352 353 354 362 352 349 349 346 348 353 350 357 353 354 349 349 349 352 351 350 350 349 346 345
301 302 297 303 304 305 304 297 305 310 310 309 310 310 311 312 314 315 319 325 329 335 353 355 355 353 353 355 361 361 359 348 354 353 352 350 351 355 356 350 349 349 350 349 347 347 344 343 341
300 294 296 299 305 305 303 299 306 310 311 310 311 311 311 312 314 317 319 320 328 339 346 351 352 346 354 358 357 362 363 356 351 349 351 351 351 351 355 350 351 352 350 348 348 348 347 346 349
294 295 297 298 304 305 303 302 306 309 309 310 312 312 312 312 313 317 319 321 329 335 347 359 354 354 355 360 360 355 355 352 348 349 341 342 344 341 347 349 348 351 351 353 352 353 353 353 351
299 299 298 302 306 303 302 303 305 309 309 310 311 313 314 315 317 317 319 320 326 342 360 360 353 353 352 355 352 354 353 346 343 344 339 343 340 337 333 334 345 349 345 345 341 343 345 345 349
299 297 298 303 305 304 303 302 306 308 309 311 311 313 315 316 317 319 320 323 335 359 360 361 351 352 351 350 343 340 345 347 343 338 342 342 338 337 334 330 336 343 343 342 337 338 340 344 347
298 296 298 299 303 304 302 300 303 307 310 311 312 313 315 315 317 319 322 343 350 354 356 355 350 346 344 340 342 341 336 341 339 335 336 339 338 337 334 332 333 335 341 337 338 340 342 337 341
295 300 300 300 299 294 303 291 302 305 307 309 310 312 314 317 318 323 329 339 346 353 352 355 354 346 341 340 339 336 339 334 334 337 337 336 340 337 334 332 332 336 343 343 342 345 343 342 338
297 302 300 300 298 298 298 295 300 306 304 306 310 312 315 316 319 320 326 332 342 346 348 353 355 350 343 342 338 336 333 338 338 336 337 341 340 337 335 335 333 339 341 344 344 346 347 346 340
303 301 301 301 298 292 296 296 296 300 305 307 310 312 315 315 317 321 325 328 329 337 342 351 353 348 343 337 339 334 331 334 333 333 341 343 341 338 341 341 344 346 344 345 343 347 344 339 337
301 298 290 289 290 290 298 296 299 306 308 309 310 313 315 316 319 321 323 324 329 331 334 344 353 350 348 343 341 339 340 345 344 339 344 346 344 343 343 345 343 341 344 344 342 341 338 339 336
299 298 291 286 287 290 298 294 298 308 310 312 312 313 314 315 318 319 323 325 324 330 333 333 339 340 347 350 347 346 344 344 350 349 347 346 344 347 346 345 335 343 342 340 340 341 339 339 337
298 295 301 295 296 292 295 300 305 308 309 310 310 312 315 317 319 320 324 328 332 336 340 341 340 342 343 345 350 352 353 353 352 350 352 349 346 346 344 340 338 340 338 341 340 336 337 335 334
301 303 294 295 287 286 293 295 296 304 306 308 309 312 315 316 317 320 323 329 332 335 338 340 342 339 342 345 347 347 350 349 352 350 347 343 341 340 340 339 339 339 337 338 338 335 335 332 332
298 297 298 298 296 290 289 292 305 305 309 309 308 313 314 314 315 318 321 324 326 329 329 332 334 335 338 343 345 345 345 342 338 337 338 334 337 338 338 338 338 337 337 338 338 336 333 330 330
303 298 298 294 292 296 295 292 308 309 311 311 308 310 314 316 316 316 317 320 321 324 325 327 327 326 326 332 329 329 333 336 336 337 338 339 338 336 334 335 334 334 334 336 335 332 327 327 325
Wind_Speed
13 14 10 11 8 8 15 18 21 7 5 11 10 7 9 14 13 9 12 10 24 21 18 18 18 17 17 16 15 15 15 15 14 14 14 13 12 12 12 11 11 10 11 11 10 9 9 9 8
11 15 11 7 11 12 14 19 21 4 14 10 3 5 4 17 19 15 12 16 23 20 15 16 17 16 17 17 16 16 16 16 15 14 14 13 13 13 12 11 11 10 10 10 9 9 8 8 7
11 14 8 7 13 16 16 20 11 9 13 5 2 2 6 14 12 10 12 19 22 17 16 16 16 18 16 16 16 17 17 16 16 15 14 13 13 13 12 11 10 10 10 9 9 8 7 8 7
7 7 8 13 20 21 25 24 11 9 6 5 3 4 1 10 4 11 12 20 19 19 18 18 17 18 18 16 16 16 17 16 15 15 14 14 13 13 12 12 11 10 9 9 9 8 7 6 6
10 8 10 16 24 24 22 21 15 6 9 2 6 7 3 14 11 14 13 17 17 18 18 16 16 17 18 15 15 16 17 17 16 16 15 15 13 13 12 11 10 9 9 9 9 8 7 5 5
8 9 14 18 23 22 22 25 23 8 9 6 5 5 9 14 13 13 14 15 17 18 18 15 14 16 17 18 16 15 16 16 16 16 15 15 14 13 12 11 10 9 9 9 9 8 8 6 6
15 13 17 22 21 21 21 21 19 21 15 16 7 13 5 13 15 13 12 14 15 21 17 15 14 14 15 19 16 16 16 15 15 14 14 14 13 13 12 11 9 8 8 9 9 8 8 7 6
11 11 23 20 18 22 20 17 13 15 19 7 13 9 3 9 10 9 12 14 16 19 19 16 14 15 14 13 19 16 16 16 16 15 14 14 13 12 11 10 10 10 9 9 9 9 9 9 9
17 13 12 22 22 17 17 18 17 5 8 5 14 15 13 11 5 8 10 14 15 14 18 17 17 15 14 14 14 17 17 16 15 14 14 12 8 10 13 12 15 13 12 11 10 10 10 10 10
19 14 22 19 20 19 14 15 8 6 7 10 13 12 7 9 6 8 11 13 16 17 19 18 16 16 15 13 14 12 13 10 9 10 11 8 9 10 12 12 15 15 13 12 11 11 10 9 6
23 21 19 19 22 15 12 14 13 9 13 13 14 13 18 12 9 11 13 14 17 17 14 19 15 15 15 12 10 7 6 7 8 11 9 9 8 8 8 6 6 6 9 5 7 7 6 9 8
25 24 22 22 24 15 10 13 16 17 16 16 17 17 19 17 14 13 14 15 16 18 18 20 20 18 16 10 11 10 8 8 7 8 8 7 5 5 7 7 8 7 6 7 7 6 8 10 9
24 23 22 20 18 20 14 17 18 19 17 17 17 18 20 20 8 6 10 14 13 14 22 24 22 18 14 7 11 11 9 10 9 9 9 8 7 4 5 4 7 8 8 8 6 8 8 7 3
20 21 19 21 20 16 19 20 20 21 19 19 19 20 19 20 19 10 12 10 7 7 5 10 21 14 10 7 8 9 8 10 9 9 10 10 6 4 5 4 5 5 7 9 7 5 4 3 3
20 18 17 16 20 25 18 23 24 20 20 21 20 17 18 20 20 17 11 9 12 9 10 11 2 15 12 12 6 8 8 6 7 7 10 12 7 6 5 5 4 4 3 3 2 4 4 2 3
14 20 19 20 23 21 19 22 19 19 19 21 20 17 17 19 19 20 15 11 14 13 8 13 13 5 9 13 5 3 4 7 4 5 7 14 12 7 4 3 5 5 5 3 1 1 2 4 6
18 17 24 23 24 23 25 21 16 21 9 9 10 12 14 15 17 16 17 18 17 9 7 15 16 23 25 12 9 4 4 6 7 9 11 7 9 10 4 4 5 6 5 4 5 4 5 5 5
16 21 21 22 19 12 15 14 16 16 14 15 13 11 11 13 16 16 17 15 11 11 12 15 6 10 6 9 5 3 4 7 7 7 8 13 10 18 9 6 10 5 5 1 3 1 3 2 3
21 22 20 15 19 16 15 17 17 14 15 12 12 10 10 11 11 17 19 16 14 9 9 15 16 20 18 4 6 3 3 4 4 4 10 10 7 4 13 9 11 6 5 5 4 7 5 4 4
22 24 19 15 16 15 12 15 15 16 13 12 11 6 8 11 10 8 13 18 9 11 8 8 15 15 8 7 6 4 3 3 2 2 8 8 7 4 3 3 14 6 2 2 4 8 2 9 6
24 22 19 16 7 10 13 13 16 15 12 16 5 6 8 4 7 9 11 12 11 12 9 8 13 14 13 13 9 8 2 3 3 1 5 9 7 6 6 11 8 11 5 8 6 10 8 10 6
22 19 19 14 14 14 16 14 17 19 19 11 9 6 4 7 6 8 12 12 14 16 14 16 16 17 14 16 14 17 12 14 11 11 9 11 19 20 22 18 12 15 8 7 6 10 10 7 5
18 17 18 17 14 13 17 11 13 11 15 9 12 6 8 3 7 12 6 5 8 10 13 14 16 16 17 17 13 13 11 12 11 13 17 16 14 18 17 17 18 19 13 10 13 10 10 6 4
18 18 18 18 15 16 19 17 12 9 12 14 14 13 10 5 5 7 9 5 4 11 16 15 14 15 15 14 13 14 15 11 6 11 10 13 11 14 16 18 17 16 13 10 9 8 7 6 4
18 15 10 11 13 14 19 18 13 12 8 13 15 15 11 3 10 10 11 10 7 6 4 12 19 16 16 16 14 15 13 7 10 11 10 11 12 11 16 16 6 4 15 12 7 6 5 5 3
19 16 10 15 14 14 20 18 17 18 10 14 13 12 8 5 11 9 11 8 9 9 10 7 8 11 13 16 17 16 14 10 8 6 6 10 12 11 13 10 10 12 12 5 3 4 3 3 5
19 20 20 17 12 7 8 13 13 14 12 14 13 10 10 8 8 8 10 7 9 9 9 7 7 5 8 9 7 10 9 11 8 8 8 8 11 9 12 12 12 12 6 5 6 4 7 5 5
15 14 14 9 13 15 11 6 5 8 10 12 10 11 10 6 10 9 8 9 9 8 8 7 8 11 9 5 3 6 7 8 5 3 6 7 4 11 12 11 9 6 6 7 8 7 5 6 5
14 15 13 10 10 10 9 2 8 4 10 8 10 10 10 5 10 10 10 7 10 11 13 12 10 11 9 7 4 3 4 4 3 9 4 3 3 10 7 7 6 7 7 7 6 6 6 6 6
13 19 19 9 15 6 4 2 11 12 7 13 13 18 7 9 11 11 8 9 10 11 12 11 12 11 12 10 12 11 11 5 4 3 3 4 5 3 4 7 7 8 9 8 9 9 9 8 10
Wind_Direction
277 264 257 259 257 229 254 252 256 286 337 76 37 354 338 26 38 81 128 114 122 138 139 143 137 141 142 144 142 137 134 135 138 138 136 133 126 122 120 117 115 115 114 111 111 112 114 113 109
282 270 244 278 252 254 247 241 264 138 83 64 24 295 314 71 86 122 108 123 124 136 143 142 140 141 145 148 146 142 142 145 147 147 144 141 135 134 131 124 123 120 118 118 120 120 121 119 112
258 262 252 227 239 244 257 249 294 154 118 127 39 119 334 82 62 90 111 121 121 141 153 137 145 139 142 147 148 147 148 150 152 151 148 145 142 141 135 132 130 128 127 129 130 130 131 127 118
235 226 247 255 239 233 241 275 282 282 83 95 260 325 144 88 96 96 140 133 135 144 156 143 144 141 139 143 149 153 152 154 155 153 151 149 148 143 142 140 138 135 139 145 146 146 147 139 128
232 262 233 233 242 252 267 258 270 235 288 288 178 242 308 102 101 124 149 147 148 147 128 148 143 145 144 151 154 157 157 158 159 157 155 153 152 148 149 145 142 144 150 154 158 159 157 154 144
222 231 245 237 250 249 246 266 284 262 239 256 288 279 264 128 147 131 155 152 154 139 134 145 146 146 151 154 166 160 159 160 160 159 158 155 154 153 153 153 156 160 162 163 166 171 168 173 176
248 238 235 251 258 256 239 242 245 263 221 236 264 263 287 39 107 128 153 154 151 128 138 148 160 152 153 156 165 161 159 160 161 160 158 156 156 156 157 160 164 169 171 171 172 180 180 185 203
243 272 260 250 251 260 268 271 246 241 253 220 279 274 206 88 105 127 163 163 160 147 142 156 162 166 163 167 156 164 164 165 164 162 160 159 159 160 163 165 173 177 179 181 186 189 193 194 206
216 241 258 254 258 266 270 271 268 24 312 274 260 264 257 111 144 171 177 171 172 161 141 160 172 172 175 170 174 166 168 168 165 164 164 159 177 175 174 191 175 183 187 186 194 200 202 206 216
227 228 239 254 279 274 305 332 326 299 234 246 274 271 235 138 197 232 187 183 182 169 157 159 178 174 182 175 165 182 175 179 184 182 175 188 200 178 186 193 182 183 187 195 202 206 208 212 227
224 238 251 239 244 293 309 310 320 303 268 265 264 250 252 241 204 218 240 201 188 177 172 162 174 169 189 190 155 178 177 182 187 192 178 203 206 183 206 159 170 180 198 205 205 212 223 222 226
232 232 241 260 277 280 276 280 272 274 267 271 273 279 282 279 188 209 223 237 200 182 180 164 172 171 190 191 160 172 184 183 181 192 183 191 227 197 189 157 180 187 186 216 197 211 212 230 239
233 242 242 256 257 278 277 261 265 263 262 266 266 266 271 275 243 224 253 232 231 198 179 175 172 170 179 205 165 170 189 175 182 180 181 192 227 224 180 209 188 183 187 198 210 221 206 218 266
234 240 249 252 257 247 251 257 256 254 254 251 250 255 253 265 271 194 257 289 285 303 196 200 156 154 183 208 164 166 180 168 180 176 180 187 202 248 188 215 232 190 200 192 197 194 215 213 252
266 252 237 240 247 252 249 254 252 259 251 250 247 230 247 257 264 261 217 251 272 256 167 151 17 153 161 216 200 163 167 189 176 169 168 180 211 228 203 202 249 247 260 217 189 189 177 191 239
258 243 249 243 239 237 236 253 252 247 226 228 229 234 235 232 247 256 251 239 256 247 157 151 144 145 200 193 194 173 179 185 157 172 161 176 191 215 207 238 197 217 226 189 233 212 269 219 218
225 238 235 247 242 217 209 239 248 250 248 273 257 238 227 233 228 242 239 234 238 240 239 164 171 178 190 178 174 179 176 58 39 51 39 359 200 195 186 268 269 211 203 180 180 213 213 223 233
222 224 242 250 234 193 226 214 253 269 247 248 243 241 230 232 224 220 232 245 224 226 217 141 89 91 150 160 156 110 68 54 48 64 66 41 25 1 46 333 315 345 308 23 329 29 352 356 327
246 241 225 241 235 177 221 246 230 242 254 258 241 238 218 241 235 206 206 224 236 229 170 123 138 130 177 146 101 83 32 27 30 40 88 66 82 23 34 3 303 7 12 13 0 327 327 321 305
237 253 252 247 236 187 202 240 244 246 249 245 254 304 225 219 214 217 189 205 198 116 106 108 100 107 87 88 75 52 66 65 96 95 112 96 90 66 77 208 282 291 197 322 273 274 320 284 264
225 235 245 253 237 268 263 255 253 261 245 252 202 242 277 305 187 195 188 133 132 126 144 141 127 134 138 130 133 122 154 49 228 186 120 152 178 168 217 243 234 267 223 193 203 252 217 246 266
228 222 245 234 240 241 200 249 247 225 227 201 211 200 41 14 155 144 151 163 168 159 169 170 162 155 152 144 166 172 177 177 207 161 200 188 181 180 197 202 232 246 230 232 219 211 231 218 210
231 219 221 243 243 248 253 255 264 222 180 202 188 146 101 9 35 38 95 96 159 178 181 179 178 169 168 176 169 182 193 205 175 186 185 205 195 198 220 210 205 216 222 223 216 217 193 185 192
219 233 221 215 223 229 232 243 245 232 206 189 180 138 105 70 74 49 49 58 162 187 187 183 174 174 172 185 199 193 207 215 182 206 206 183 192 199 221 207 209 209 213 212 210 197 181 184 186
227 217 216 221 225 239 224 224 235 240 240 192 148 118 120 119 89 45 41 11 1 350 85 147 174 187 193 203 207 217 228 233 221 205 200 182 193 203 209 212 200 26 247 213 184 164 170 184 188
215 216 220 215 216 235 221 222 215 227 155 109 97 90 112 96 68 44 63 2 352 14 9 0 183 180 192 202 213 217 228 230 232 227 237 203 203 197 190 182 207 182 188 182 193 152 183 181 191
198 211 233 251 277 254 256 249 80 100 120 134 142 149 106 95 93 59 75 28 45 28 20 357 321 211 188 202 229 239 232 219 231 234 230 212 195 201 154 171 190 208 195 165 180 201 190 190 210
248 215 227 250 241 245 250 210 102 184 152 161 157 133 117 127 105 99 67 83 80 83 55 21 28 42 22 15 228 251 251 254 239 294 255 255 202 190 179 164 166 183 166 185 194 204 201 208 210
201 218 243 246 274 253 215 57 352 18 49 46 15 138 135 129 119 113 105 85 70 61 65 34 46 47 51 63 47 32 62 78 360 82 309 185 277 139 136 129 157 182 194 202 198 214 233 229 212
289 218 213 219 249 251 42 231 327 348 79 70 47 321 131 96 99 86 82 90 90 88 68 54 41 45 38 56 51 36 26 55 72 112 77 63 104 78 79 151 186 196 201 198 206 208 222 222 226